Regional Weather Roundup
Issued by NWS Grand Forks, ND

Home | Current Version | Previous Version | Text Only | Print | Product List | Glossary Off
Versions: 1 2 3 4 5 6 7 8 9 10 11 12 13 14 15 16 17 18 19 20 21 22 23 24 25 26 27 28 29 30 31 32 33 34 35 36 37 38 39 40 41 42 43 44 45 46 47 48 49 50

000
ASUS43 KFGF 270831
RWRFGF
PRAIRIE TO PINES  WEATHER ROUNDUP
NATIONAL WEATHER SERVICE EASTERN NORTH DAKOTA/GRAND FORKS ND
300 AM CDT MON MAR 27 2017

 **SATELLITE DATA USED TO AUGMENT SKY COVER AT AUTOMATED STATIONS**
 *****  WEATHER ACROSS EASTERN NORTH DAKOTA  *****

CITY           SKY/WX    TMP DP  RH WIND       PRES   REMARKS
GRAND FORKS    CLOUDY    39  39 100 CALM      29.96S FOG
GRAND FRKS AFB CLOUDY    36  36 100 CALM      29.96F FOG
DEVILS LAKE    FOG       32  32 100 CALM      29.94R VSB 1/4
FARGO          FAIR      34  33  96 CALM      29.96R
WAHPETON ARPT    N/A     32  32 100 CALM      29.96F
$$

 ***** WEATHER ACROSS CENTRAL AND WESTERN NORTH DAKOTA  *****

CITY           SKY/WX    TMP DP  RH WIND       PRES   REMARKS
BISMARCK       FAIR      34  31  88 NE8       29.92F
MINOT          FAIR      33  32  96 NW5       29.88S FOG
JAMESTOWN      FOG       33  33 100 CALM      29.92F VSB 1/4
MINOT AFB      FAIR      30  30  97 W3        29.87S
GARRISON         N/A     39  32  76 SE3       29.88S
WILLISTON      CLOUDY    35  30  82 CALM      29.88S
DICKINSON      FAIR      35  30  82 SW3       29.86S
HETTINGER      FAIR      35  32  88 CALM      29.91S
$$

 *****  OTHER AIRPORT OBSERVATIONS IN OUR AREA  *****

CITY           SKY/WX    TMP DP  RH WIND       PRES   REMARKS
WALHALLA       NOT AVBL
GRAFTON AIRPOR FOG       34  34 100 CALM      29.99S VSB 1/4
VALLEY CITY AR FAIR      30  30 100 CALM      29.96R FOG
CANDO          NOT AVBL
CAVALIER APRT  FOG       32  32 100 CALM      29.97S VSB<1/4
GWINNER        MOSUNNY   36  36 100 MISG      29.95S
SHEYENNE NWR     N/A     35  35 100 CALM      29.95S
ROLLA          CLOUDY    34  34 100 S6        29.91S
 ***** THE ABOVE OBSERVATIONS ARE NON NWS ARE NOT QUALITY
       CONTROLLED AND MAY MIS-REPORT RAIN FOR SNOW...
$$

  *****  WEATHER ACROSS NORTHERN MINNESOTA  *****

CITY           SKY/WX    TMP DP  RH WIND       PRES   REMARKS
FLAG ISLAND    FAIR      28  28 100 CALM      29.95S
WARROAD          N/A     28  25  86 CALM      29.96S FOG
ROSEAU         FAIR      28  25  86 CALM      29.96S FOG
HALLOCK        FOG       28  28 100 CALM      29.97S VSB 1/4
THF RVR FALLS    N/A     30  28  93 MISG        N/A
BAUDETTE       FAIR      28  26  92 CALM      29.94S
WASKISH        FAIR      28  28 100 CALM      29.95S
CROOKSTON      FOG       30  30 100 CALM      29.97S VSB<1/4
STEPHEN NDAWN    N/A     30  30 100 SW1         N/A
GREENBUSH NDAW   N/A     28  28 100 CALM        N/A
$$
  *****  WEATHER ACROSS CENTRAL AND WEST MINNESOTA  *****

CITY           SKY/WX    TMP DP  RH WIND       PRES   REMARKS
FOSSTON        FAIR      30  28  93 CALM      29.96S FOG
BEMIDJI        FAIR      33  31  94 CALM      29.94S
PARK RAPIDS    CLOUDY    35  30  82 N3        29.93S
ELBOW LAKE     CLOUDY    32  32 100 CALM      29.97R FOG
WADENA         MOCLDY    32  30  93 CALM      29.94F
DETROIT LAKES  FAIR      37  36  93 CALM      29.96R
MOORHEAD       MOCLDY    34  32  93 CALM      29.97S FOG
FERGUS FALLS   FAIR      36  36 100 NE3       30.00R
MORRIS MN      FAIR      34  32  93 NW5       29.95S FOG
STAPLES        MOCLDY    34  30  86 W3        29.94S
$$
  *****  WEATHER ELSEWHERE ACROSS MINNESOTA  *****

CITY           SKY/WX    TMP DP  RH WIND       PRES   REMARKS
DULUTH         FOG       31  31 100 W6        29.92S VSB 1/2
INTRNTL FALLS  FAIR      27  25  92 CALM      29.94R
ELY            FAIR      28  28 100 CALM      29.91S
CLOQUET        FAIR      30  28  93 CALM      29.92S FOG
WHEATON        FAIR      36  34  93 CALM      29.99R
BRAINERD       CLOUDY    35  32  88 SW3       29.94S
HIBBING        CLOUDY    29  29 100 CALM      29.91F
ALEXANDRIA     FAIR      36  34  92 NW5       29.95R
SAINT CLOUD    CLOUDY    34  34 100 W5        29.94R
MINNEAPOLIS    CLOUDY    39  34  82 NW3       29.93S
$$

  *****  WEATHER ACROSS SOUTH DAKOTA  *****

CITY           SKY/WX    TMP DP  RH WIND       PRES   REMARKS
SIOUX FALLS    CLOUDY    42  39  89 CALM      29.95F
BROOKINGS      FOG       34  34 100 CALM      29.94F VSB 1/2
WATERTOWN      CLOUDY    35  35 100 CALM      29.94R
HURON          CLOUDY    39  37  92 E3        29.96R
SISSETON         N/A     37  35  92 NW6       29.95R
ABERDEEN       CLOUDY    38  33  82 CALM      29.95F
MITCHELL       FOG       31  31 100 CALM      29.97R VSB 1/4
PIERRE         CLOUDY    39  37  92 CALM      29.93S
MOBRIDGE       FAIR      39  34  82 SE6       29.90S
RAPID CITY     FAIR      30  29  96 CALM      29.90F FOG
$$

  *****  SOME WEATHER IN NEARBY STATES *****

CITY           SKY/WX    TMP DP  RH WIND       PRES   REMARKS
GLASGOW MT     FAIR      33  24  69 E9        29.85F
GREAT FALLS MT CLOUDY    45  27  49 S14       29.78S
CHEYENNE WY    FAIR      33  31  92 W8        29.94F
SCOTTSBLUFF NE FAIR      28  25  88 N3        29.94F
OMAHA NE       CLOUDY    45  41  86 NW5       29.93R
DES MOINES IA  CLOUDY    45  43  93 N5        29.92S FOG
DAVENPORT IA   FOG       46  45  96 W7        29.92F VSB 1/2
CHICAGO IL     CLOUDY    52  49  89 NW8       29.88F FOG
EAU CLAIRE WI  CLOUDY    38  36  92 N5        29.90S
LA CROSSE WI   CLOUDY    42  41  96 CALM      29.90F
$$

  *****  SOME NATIONAL WEATHER *****

CITY           SKY/WX    TMP DP  RH WIND       PRES   REMARKS
LA GUARDIA NY  DRIZZLE   40  37  89 NE10      30.20F FOG
RALEIGH NC     MOCLDY    62  54  74 S8        30.11F
ATLANTA GA     FAIR      62  55  77 CALM      30.05S
NEW ORLEANS LA MOCLDY    72  69  90 S7        29.98R
OKLAHOMA CITY  CLOUDY    54  50  86 NW20G28   29.79R
ALBUQUERQUE NM FAIR      48  24  39 CALM      30.02S
SALT LAKE CITY MOCLDY    50  32  50 SE9       29.90F
LOS ANGELES CA FAIR      58  53  84 W10       30.03S
BOISE ID       LGT RAIN  44  39  82 S8        29.91R
SEATTLE WA     LGT RAIN  46  43  89 S13       29.88R
$$

*** WEATHER ACROSS MANITOBA...SASKATCHEWAN AND ONTARIO ***
                ***ONTARIO***

CITY           SKY/WX    TMP DP  RH WIND       PRES   REMARKS
GERALDTON      CLEAR     23  21  93 W2        29.87S
THUNDER BAY    CLOUDY    32  32 100 W6        29.91F
SIOUX LOOKOUT  PTCLDY    25  25 100 N3        29.93R
TORONTO        LGT RAIN  43  43 100 SE3       29.87F FOG
BIG TROUT LK   CLOUDY    30  25  80 NW9       29.92R WCI  22
PICKLE LAKE    NOT AVBL
DRYDEN         CLEAR     30  28  93 VRB2      29.93R
KENORA         CLEAR     34  30  86 N6        29.95R
$$
                *** MANITOBA***

CITY           SKY/WX    TMP DP  RH WIND       PRES   REMARKS
BRANDON        MOCLDY    34  32  93 E12       29.91F
DAUPHIN        MOCLDY    32  32 100 NE9       29.96F WCI  24
ISLAND LAKE    FLURRIES  25  19  80 NW7       30.01R WCI  17
PILOT MOUND      N/A     32  30  93 E5          N/A
THE PAS        CLEAR     21  18  86 E7        30.04R WCI  13
THOMPSON       FLURRIES  19  16  86 N6        30.08  WCI  11
WINNIPEG       PTCLDY    32  28  86 NE6       29.98S
LYNN LAKE      CLEAR      9   7  92 NE5       30.09R WCI   0
CHURCHILL      FLURRIES   9   7  92 N14       30.10R WCI  -8
GILLAM         FLURRIES  10   7  85 NW9       30.06R WCI  -2
$$
                ***SASKATCHEWAN***

CITY           SKY/WX    TMP DP  RH WIND       PRES   REMARKS
ESTEVAN        CLEAR     27  27 100 NE7       29.88R WCI  19
KINDERSLEY     FOG       30  30 100 E12       29.86F VSB 1/8 WCI  21
LLOYDMINSTER   CLEAR     30  30 100 SE14      29.87R WCI  20
PRINCE ALBERT  MOCLDY    19  19 100 CALM      29.99R
REGINA         FOG       28  28 100 N8        29.89R VSB 3/8 WCI  20
YORKTON        CLEAR     28  28 100 NE3       29.90S
N. BATTLEFORD  CLEAR     27 N/A N/A SE9       29.93S WCI  17
LA RONGE       PTCLDY     9   5  85 NE3       30.02R
SASKATOON      CLOUDY    27  27 100 E12       29.95S FOG     WCI  16
SWIFT CURRENT  CLEAR     28  27  93 SE9       29.83F WCI  20
$$
NOTE: THESE ARE AUTOMATED STATIONS WITH LIMITED QUALITY CONTROL
      "FAIR" INDICATES FEW OR NO CLOUDS BELOW 12,000 FEET WITH NO
      SIGNIFICANT WEATHER AND/OR OBSTRUCTIONS TO VISIBILITY.
      SKY/WX - SKY CONDITION AND SIGNIFICANT WEATHER.
      TMP - AIR TEMPERATURE.    DP   - DEWPOINT TEMPERATURE.
      RH  - RELATIVE HUMIDITY.  PRES - PRESSURE.
      HX  - HEAT INDEX.         WCI  - WIND CHILL INDEX.
$




USA.gov is the U.S. government's official web portal to all federal, state and local government web resources and services.